Time,TemperatureF,DewpointF,PressureIn,WindDirection,WindDirectionDegrees,WindSpeedMPH,WindSpeedGustMPH,Humidity,HourlyPrecipIn,Conditions,Clouds,dailyrainin,SolarRadiationWatts/m^2,SoftwareType,DateUTC
2013-10-03 00:02:00,62.3,59.9,30.09,WNW,291,0.0,0.0,92,0.00,,,0.00,0,Wunderground v.1.15,2013-10-03 04:02:00,
2013-10-03 00:04:00,62.3,59.9,30.09,WNW,291,0.0,0.0,92,0.00,,,0.00,0,Wunderground v.1.15,2013-10-03 04:04:00,
2013-10-03 00:06:00,62.3,59.9,30.09,WNW,291,0.0,0.0,92,0.00,,,0.00,0,Wunderground v.1.15,2013-10-03 04:06:00,
2013-10-03 00:11:00,62.1,60.1,30.09,WNW,291,0.0,0.0,93,0.00,,,0.00,0,Wunderground v.1.15,2013-10-03 04:11:00,
2013-10-03 00:16:00,62.0,60.0,30.09,WNW,291,0.0,0.0,93,0.00,,,0.00,0,Wunderground v.1.15,2013-10-03 04:16:00,
2013-10-03 00:22:00,62.0,60.0,30.09,WNW,291,0.0,0.0,93,0.00,,,0.00,0,Wunderground v.1.15,2013-10-03 04:22:00,
2013-10-03 00:28:00,62.0,60.3,30.09,WNW,291,0.0,0.0,94,0.00,,,0.00,0,Wunderground v.1.15,2013-10-03 04:28:00,
2013-10-03 00:32:00,62.0,60.3,30.09,WNW,291,0.0,0.0,94,0.00,,,0.00,0,Wunderground v.1.15,2013-10-03 04:32:00,
2013-10-03 00:38:00,61.8,60.1,30.09,WNW,291,0.0,0.0,94,0.00,,,0.00,0,Wunderground v.1.15,2013-10-03 04:38:00,
2013-10-03 00:44:00,61.6,59.9,30.09,WNW,291,0.0,0.0,94,0.00,,,0.00,0,Wunderground v.1.15,2013-10-03 04:44:00,
2013-10-03 00:50:00,61.6,59.9,30.09,WNW,291,0.0,0.0,94,0.00,,,0.00,0,Wunderground v.1.15,2013-10-03 04:50:00,
2013-10-03 00:56:00,61.5,59.8,30.09,WNW,291,0.0,0.0,94,0.00,,,0.00,0,Wunderground v.1.15,2013-10-03 04:56:00,
2013-10-03 00:58:00,61.3,59.6,30.09,WNW,291,0.0,0.0,94,0.00,,,0.00,0,Wunderground v.1.15,2013-10-03 04:58:00,
2013-10-03 01:04:00,61.3,59.6,30.09,WNW,291,0.0,0.0,94,0.00,,,0.00,0,Wunderground v.1.15,2013-10-03 05:04:00,
2013-10-03 01:10:00,61.3,59.9,30.09,SSE,168,0.0,1.0,95,0.00,,,0.00,0,Wunderground v.1.15,2013-10-03 05:10:00,
2013-10-03 01:16:00,61.3,59.9,30.10,SSE,168,1.0,1.0,95,0.00,,,0.00,0,Wunderground v.1.15,2013-10-03 05:16:00,
2013-10-03 01:22:00,61.5,60.1,30.10,SSE,168,0.0,0.0,95,0.00,,,0.00,0,Wunderground v.1.15,2013-10-03 05:22:00,
2013-10-03 01:28:00,61.3,60.2,30.10,SSE,168,0.0,0.0,96,0.00,,,0.00,0,Wunderground v.1.15,2013-10-03 05:28:00,
2013-10-03 01:34:00,61.3,59.9,30.09,SSE,168,0.0,0.0,95,0.00,,,0.00,0,Wunderground v.1.15,2013-10-03 05:34:00,
2013-10-03 01:40:00,61.0,59.6,30.09,SSE,168,0.0,0.0,95,0.00,,,0.00,0,Wunderground v.1.15,2013-10-03 05:40:00,
2013-10-03 01:46:00,60.9,59.5,30.09,SSE,168,0.0,0.0,95,0.00,,,0.00,0,Wunderground v.1.15,2013-10-03 05:46:00,
2013-10-03 01:52:00,60.7,59.6,30.09,SSE,168,0.0,0.0,96,0.00,,,0.00,0,Wunderground v.1.15,2013-10-03 05:52:00,
2013-10-03 01:58:00,60.5,59.4,30.09,SSE,168,0.0,0.0,96,0.00,,,0.00,0,Wunderground v.1.15,2013-10-03 05:58:00,
2013-10-03 02:04:00,60.4,59.3,30.10,SSE,168,0.0,0.0,96,0.00,,,0.00,0,Wunderground v.1.15,2013-10-03 06:04:00,
2013-10-03 02:10:00,60.2,59.1,30.10,SSE,168,0.0,0.0,96,0.00,,,0.00,0,Wunderground v.1.15,2013-10-03 06:10:00,
2013-10-03 02:16:00,60.2,59.1,30.10,SSE,168,0.0,0.0,96,0.00,,,0.00,0,Wunderground v.1.15,2013-10-03 06:16:00,
2013-10-03 02:22:00,60.1,59.0,30.10,SSE,168,0.0,0.0,96,0.00,,,0.00,0,Wunderground v.1.15,2013-10-03 06:22:00,
2013-10-03 02:28:00,60.1,59.0,30.10,SSE,168,0.0,0.0,96,0.00,,,0.00,0,Wunderground v.1.15,2013-10-03 06:28:00,
2013-10-03 02:34:00,59.9,58.8,30.09,SSE,168,0.0,0.0,96,0.00,,,0.00,0,Wunderground v.1.15,2013-10-03 06:34:00,
2013-10-03 02:41:00,59.9,58.8,30.09,SSE,168,0.0,0.0,96,0.00,,,0.00,0,Wunderground v.1.15,2013-10-03 06:41:00,
2013-10-03 02:46:00,59.9,58.8,30.09,SSE,168,0.0,0.0,96,0.00,,,0.00,0,Wunderground v.1.15,2013-10-03 06:46:00,
2013-10-03 02:52:00,59.8,58.7,30.09,SSE,168,0.0,0.0,96,0.00,,,0.00,0,Wunderground v.1.15,2013-10-03 06:52:00,
2013-10-03 02:58:00,59.6,58.5,30.09,SSE,168,0.0,0.0,96,0.00,,,0.00,0,Wunderground v.1.15,2013-10-03 06:58:00,
2013-10-03 03:04:00,59.5,58.4,30.09,SSE,168,0.0,0.0,96,0.00,,,0.00,0,Wunderground v.1.15,2013-10-03 07:04:00,
2013-10-03 03:10:00,59.5,58.4,30.09,SSE,168,0.0,0.0,96,0.00,,,0.00,0,Wunderground v.1.15,2013-10-03 07:10:00,
2013-10-03 03:16:00,59.3,58.2,30.09,SSE,168,0.0,0.0,96,0.00,,,0.00,0,Wunderground v.1.15,2013-10-03 07:16:00,
2013-10-03 03:22:00,59.2,58.1,30.09,SSE,168,0.0,0.0,96,0.00,,,0.00,0,Wunderground v.1.15,2013-10-03 07:22:00,
2013-10-03 03:28:00,59.0,57.9,30.09,SSE,168,0.0,0.0,96,0.00,,,0.00,0,Wunderground v.1.15,2013-10-03 07:28:00,
2013-10-03 03:34:00,59.0,58.2,30.09,SSE,168,0.0,0.0,97,0.00,,,0.00,0,Wunderground v.1.15,2013-10-03 07:34:00,
2013-10-03 03:40:00,58.9,58.1,30.09,SSE,168,0.0,0.0,97,0.00,,,0.00,0,Wunderground v.1.15,2013-10-03 07:40:00,
2013-10-03 03:46:00,58.7,57.9,30.09,SSE,168,0.0,0.0,97,0.00,,,0.00,0,Wunderground v.1.15,2013-10-03 07:46:00,
2013-10-03 03:52:00,58.7,57.9,30.09,SSE,168,0.0,0.0,97,0.00,,,0.00,0,Wunderground v.1.15,2013-10-03 07:52:00,
2013-10-03 03:58:00,58.6,57.8,30.09,SSE,168,0.0,0.0,97,0.00,,,0.00,0,Wunderground v.1.15,2013-10-03 07:58:00,
2013-10-03 04:04:00,58.6,57.8,30.09,SSE,168,0.0,0.0,97,0.00,,,0.00,0,Wunderground v.1.15,2013-10-03 08:04:00,
2013-10-03 04:10:00,58.6,57.8,30.09,SSE,168,0.0,0.0,97,0.00,,,0.00,0,Wunderground v.1.15,2013-10-03 08:10:00,
2013-10-03 04:16:00,58.4,57.6,30.09,SSE,168,0.0,0.0,97,0.00,,,0.00,0,Wunderground v.1.15,2013-10-03 08:16:00,
2013-10-03 04:22:00,58.4,57.6,30.09,SSE,168,0.0,0.0,97,0.00,,,0.00,0,Wunderground v.1.15,2013-10-03 08:22:00,
2013-10-03 04:28:00,58.3,57.5,30.09,SSE,168,0.0,0.0,97,0.00,,,0.00,0,Wunderground v.1.15,2013-10-03 08:28:00,
2013-10-03 04:34:00,58.3,57.5,30.09,SSE,168,0.0,0.0,97,0.00,,,0.00,0,Wunderground v.1.15,2013-10-03 08:34:00,
2013-10-03 04:40:00,58.1,57.3,30.09,SSE,168,0.0,0.0,97,0.00,,,0.00,0,Wunderground v.1.15,2013-10-03 08:40:00,
2013-10-03 04:46:00,58.1,57.3,30.09,SSE,168,0.0,0.0,97,0.00,,,0.00,0,Wunderground v.1.15,2013-10-03 08:46:00,
2013-10-03 04:52:00,58.0,57.2,30.09,SSE,168,0.0,0.0,97,0.00,,,0.00,0,Wunderground v.1.15,2013-10-03 08:52:00,
2013-10-03 04:58:00,57.8,57.0,30.09,SSE,168,0.0,0.0,97,0.00,,,0.00,0,Wunderground v.1.15,2013-10-03 08:58:00,
2013-10-03 05:04:00,57.8,57.0,30.09,SSE,168,0.0,0.0,97,0.00,,,0.00,0,Wunderground v.1.15,2013-10-03 09:04:00,
2013-10-03 05:10:00,57.6,56.8,30.09,SSE,168,0.0,0.0,97,0.00,,,0.00,0,Wunderground v.1.15,2013-10-03 09:10:00,
2013-10-03 05:16:00,57.5,56.7,30.09,SSE,168,0.0,0.0,97,0.00,,,0.00,0,Wunderground v.1.15,2013-10-03 09:16:00,
2013-10-03 05:22:00,57.5,56.7,30.09,SSE,168,0.0,0.0,97,0.00,,,0.00,0,Wunderground v.1.15,2013-10-03 09:22:00,
2013-10-03 05:28:00,57.3,56.5,30.09,SSE,168,0.0,0.0,97,0.00,,,0.00,0,Wunderground v.1.15,2013-10-03 09:28:00,
2013-10-03 05:34:00,57.2,56.4,30.09,SSE,168,0.0,0.0,97,0.00,,,0.00,0,Wunderground v.1.15,2013-10-03 09:34:00,
2013-10-03 05:40:00,57.2,56.4,30.09,SSE,168,0.0,0.0,97,0.00,,,0.00,0,Wunderground v.1.15,2013-10-03 09:40:00,
2013-10-03 05:46:00,57.2,56.4,30.09,SSE,168,0.0,0.0,97,0.00,,,0.00,0,Wunderground v.1.15,2013-10-03 09:46:00,
2013-10-03 05:52:00,57.2,56.4,30.09,SSE,168,0.0,0.0,97,0.00,,,0.00,0,Wunderground v.1.15,2013-10-03 09:52:00,
2013-10-03 05:58:00,57.2,56.4,30.09,SSE,168,0.0,0.0,97,0.00,,,0.00,0,Wunderground v.1.15,2013-10-03 09:58:00,
2013-10-03 06:04:00,57.2,56.4,30.10,SSE,168,0.0,0.0,97,0.00,,,0.00,0,Wunderground v.1.15,2013-10-03 10:04:00,
2013-10-03 06:11:00,57.2,56.4,30.10,SSE,168,0.0,0.0,97,0.00,,,0.00,0,Wunderground v.1.15,2013-10-03 10:11:00,
2013-10-03 06:16:00,57.0,56.2,30.10,SSE,168,0.0,0.0,97,0.00,,,0.00,0,Wunderground v.1.15,2013-10-03 10:16:00,
2013-10-03 06:22:00,57.0,56.2,30.10,SSE,168,0.0,0.0,97,0.00,,,0.00,0,Wunderground v.1.15,2013-10-03 10:22:00,
2013-10-03 06:28:00,57.0,56.2,30.10,SSE,168,0.0,0.0,97,0.00,,,0.00,0,Wunderground v.1.15,2013-10-03 10:28:00,
2013-10-03 06:34:00,57.0,56.4,30.11,SSE,168,0.0,0.0,98,0.00,,,0.00,0,Wunderground v.1.15,2013-10-03 10:34:00,
2013-10-03 06:40:00,57.0,56.4,30.11,SSE,168,0.0,0.0,98,0.00,,,0.00,0,Wunderground v.1.15,2013-10-03 10:40:00,
2013-10-03 06:46:00,57.0,56.4,30.11,SSE,168,0.0,0.0,98,0.00,,,0.00,0,Wunderground v.1.15,2013-10-03 10:46:00,
2013-10-03 06:52:00,57.0,56.4,30.11,SSE,168,0.0,0.0,98,0.00,,,0.00,0,Wunderground v.1.15,2013-10-03 10:52:00,
2013-10-03 06:58:00,57.0,56.4,30.11,SSE,168,0.0,0.0,98,0.00,,,0.00,0,Wunderground v.1.15,2013-10-03 10:58:00,
2013-10-03 07:04:00,57.0,56.4,30.11,SSE,168,0.0,0.0,98,0.00,,,0.00,7,Wunderground v.1.15,2013-10-03 11:04:00,
2013-10-03 07:10:00,57.2,56.6,30.11,SSE,168,0.0,0.0,98,0.00,,,0.00,11,Wunderground v.1.15,2013-10-03 11:10:00,
2013-10-03 07:16:00,57.3,56.7,30.11,SSE,168,0.0,0.0,98,0.00,,,0.00,11,Wunderground v.1.15,2013-10-03 11:16:00,
2013-10-03 07:22:00,57.3,56.7,30.11,SSE,168,0.0,0.0,98,0.00,,,0.00,14,Wunderground v.1.15,2013-10-03 11:22:00,
2013-10-03 07:28:00,57.3,56.7,30.11,SSE,168,0.0,0.0,98,0.00,,,0.00,18,Wunderground v.1.15,2013-10-03 11:28:00,
2013-10-03 07:34:00,57.3,56.7,30.11,SSE,168,0.0,0.0,98,0.00,,,0.00,21,Wunderground v.1.15,2013-10-03 11:34:00,
2013-10-03 07:40:00,57.3,56.7,30.11,SSE,168,0.0,0.0,98,0.00,,,0.00,33,Wunderground v.1.15,2013-10-03 11:40:00,
2013-10-03 07:46:00,57.3,56.7,30.11,SSE,168,0.0,0.0,98,0.00,,,0.00,44,Wunderground v.1.15,2013-10-03 11:46:00,
2013-10-03 07:52:00,57.5,56.9,30.11,SSE,168,0.0,0.0,98,0.00,,,0.00,42,Wunderground v.1.15,2013-10-03 11:52:00,
2013-10-03 07:58:00,57.6,57.0,30.11,NNE,30,0.0,0.0,98,0.00,,,0.00,40,Wunderground v.1.15,2013-10-03 11:58:00,
2013-10-03 08:04:00,58.1,57.8,30.12,NNE,30,0.0,0.0,99,0.00,,,0.00,42,Wunderground v.1.15,2013-10-03 12:04:00,
2013-10-03 08:10:00,58.4,58.1,30.12,NNE,30,0.0,0.0,99,0.00,,,0.00,63,Wunderground v.1.15,2013-10-03 12:10:00,
2013-10-03 08:16:00,58.9,58.6,30.12,NNE,30,0.0,0.0,99,0.00,,,0.00,83,Wunderground v.1.15,2013-10-03 12:16:00,
2013-10-03 08:22:00,59.2,58.9,30.12,NNE,30,0.0,0.0,99,0.00,,,0.00,84,Wunderground v.1.15,2013-10-03 12:22:00,
2013-10-03 08:28:00,59.6,59.3,30.12,NNE,30,0.0,0.0,99,0.00,,,0.00,76,Wunderground v.1.15,2013-10-03 12:28:00,
2013-10-03 08:34:00,60.1,59.8,30.12,NNE,30,0.0,0.0,99,0.00,,,0.00,72,Wunderground v.1.15,2013-10-03 12:34:00,
2013-10-03 08:41:00,60.5,60.2,30.12,NNE,30,0.0,0.0,99,0.00,,,0.00,77,Wunderground v.1.15,2013-10-03 12:41:00,
2013-10-03 08:46:00,61.0,60.7,30.13,SW,216,0.0,0.0,99,0.00,,,0.00,84,Wunderground v.1.15,2013-10-03 12:46:00,
2013-10-03 08:52:00,61.6,61.3,30.13,SW,216,0.0,0.0,99,0.00,,,0.00,104,Wunderground v.1.15,2013-10-03 12:52:00,
2013-10-03 08:58:00,62.4,62.4,30.13,SW,216,0.0,0.0,100,0.00,,,0.00,70,Wunderground v.1.15,2013-10-03 12:58:00,
2013-10-03 09:04:00,62.9,62.9,30.13,SW,216,0.0,0.0,100,0.00,,,0.00,74,Wunderground v.1.15,2013-10-03 13:04:00,
2013-10-03 09:10:00,63.5,63.2,30.13,SW,216,0.0,0.0,99,0.00,,,0.00,97,Wunderground v.1.15,2013-10-03 13:10:00,
2013-10-03 09:16:00,65.0,64.7,30.13,SW,216,0.0,0.0,99,0.00,,,0.00,310,Wunderground v.1.15,2013-10-03 13:16:00,
2013-10-03 09:22:00,66.4,65.5,30.13,SW,216,0.0,1.0,97,0.00,,,0.00,250,Wunderground v.1.15,2013-10-03 13:22:00,
2013-10-03 09:28:00,67.4,65.3,30.13,SW,216,1.0,1.0,93,0.00,,,0.00,266,Wunderground v.1.15,2013-10-03 13:28:00,
2013-10-03 09:34:00,68.8,65.4,30.12,SW,216,0.0,0.0,89,0.00,,,0.00,368,Wunderground v.1.15,2013-10-03 13:34:00,
2013-10-03 09:40:00,70.1,65.4,30.12,SW,216,0.0,2.0,85,0.00,,,0.00,389,Wunderground v.1.15,2013-10-03 13:40:00,
2013-10-03 09:46:00,71.1,66.0,30.13,SW,216,0.0,2.0,84,0.00,,,0.00,408,Wunderground v.1.15,2013-10-03 13:46:00,
2013-10-03 09:52:00,72.0,65.8,30.13,SW,216,0.0,1.0,81,0.00,,,0.00,428,Wunderground v.1.15,2013-10-03 13:52:00,
2013-10-03 09:58:00,72.7,65.1,30.13,SW,216,0.0,2.0,77,0.00,,,0.00,449,Wunderground v.1.15,2013-10-03 13:58:00,
2013-10-03 10:04:00,73.7,65.3,30.13,SW,216,0.0,1.0,75,0.00,,,0.00,470,Wunderground v.1.15,2013-10-03 14:04:00,
2013-10-03 10:10:00,74.2,66.5,30.13,SW,215,1.0,1.0,77,0.00,,,0.00,401,Wunderground v.1.15,2013-10-03 14:10:00,
2013-10-03 10:16:00,75.4,67.3,30.13,SW,215,1.0,2.0,76,0.00,,,0.00,512,Wunderground v.1.15,2013-10-03 14:16:00,
2013-10-03 10:22:00,76.5,66.8,30.13,East,97,0.0,5.0,72,0.00,,,0.00,552,Wunderground v.1.15,2013-10-03 14:22:00,
2013-10-03 10:28:00,76.8,65.9,30.13,East,97,1.0,5.0,69,0.00,,,0.00,604,Wunderground v.1.15,2013-10-03 14:28:00,
2013-10-03 10:34:00,77.4,66.4,30.13,East,97,1.0,2.0,69,0.00,,,0.00,552,Wunderground v.1.15,2013-10-03 14:34:00,
2013-10-03 10:40:00,77.4,65.6,30.13,East,97,1.0,1.0,67,0.00,,,0.00,352,Wunderground v.1.15,2013-10-03 14:40:00,
2013-10-03 10:46:00,77.2,65.8,30.13,East,97,0.0,1.0,68,0.00,,,0.00,296,Wunderground v.1.15,2013-10-03 14:46:00,
2013-10-03 10:52:00,77.9,66.9,30.13,ESE,103,0.0,2.0,69,0.00,,,0.00,549,Wunderground v.1.15,2013-10-03 14:52:00,
2013-10-03 10:58:00,78.1,65.8,30.13,ESE,103,0.0,2.0,66,0.00,,,0.00,262,Wunderground v.1.15,2013-10-03 14:58:00,
2013-10-03 11:04:00,77.9,66.9,30.13,ESE,103,0.0,2.0,69,0.00,,,0.00,172,Wunderground v.1.15,2013-10-03 15:04:00,
2013-10-03 11:10:00,78.8,68.2,30.13,ESE,110,2.0,2.0,70,0.00,,,0.00,644,Wunderground v.1.15,2013-10-03 15:10:00,
2013-10-03 11:16:00,79.8,68.3,30.12,SSE,147,2.0,2.0,68,0.00,,,0.00,651,Wunderground v.1.15,2013-10-03 15:16:00,
2013-10-03 11:22:00,80.9,68.9,30.12,SE,124,1.0,1.0,67,0.00,,,0.00,655,Wunderground v.1.15,2013-10-03 15:22:00,
2013-10-03 11:28:00,81.4,68.1,30.12,SE,124,1.0,2.0,64,0.00,,,0.00,676,Wunderground v.1.15,2013-10-03 15:28:00,
2013-10-03 11:34:00,81.8,68.4,30.12,South,189,2.0,6.0,64,0.00,,,0.00,690,Wunderground v.1.15,2013-10-03 15:34:00,
2013-10-03 11:40:00,82.2,68.3,30.12,SSE,154,2.0,6.0,63,0.00,,,0.00,672,Wunderground v.1.15,2013-10-03 15:40:00,
2013-10-03 11:46:00,82.2,68.3,30.11,South,169,1.0,5.0,63,0.00,,,0.00,672,Wunderground v.1.15,2013-10-03 15:46:00,
2013-10-03 11:52:00,82.6,67.3,30.11,SE,137,2.0,2.0,60,0.00,,,0.00,672,Wunderground v.1.15,2013-10-03 15:52:00,
2013-10-03 11:58:00,83.2,68.8,30.11,South,178,2.0,4.0,62,0.00,,,0.00,677,Wunderground v.1.15,2013-10-03 15:58:00,
2013-10-03 12:04:00,83.4,65.5,30.11,South,184,1.0,2.0,55,0.00,,,0.00,714,Wunderground v.1.15,2013-10-03 16:04:00,
2013-10-03 12:10:00,84.3,68.4,30.11,SSE,152,2.0,6.0,59,0.00,,,0.00,790,Wunderground v.1.15,2013-10-03 16:10:00,
2013-10-03 12:16:00,83.4,65.5,30.11,SSE,164,3.0,6.0,55,0.00,,,0.00,280,Wunderground v.1.15,2013-10-03 16:16:00,
2013-10-03 12:22:00,82.6,66.3,30.11,SW,232,2.0,3.0,58,0.00,,,0.00,348,Wunderground v.1.15,2013-10-03 16:22:00,
2013-10-03 12:28:00,82.0,63.7,30.11,SW,232,2.0,5.0,54,0.00,,,0.00,317,Wunderground v.1.15,2013-10-03 16:28:00,
2013-10-03 12:34:00,82.4,66.1,30.10,SW,232,1.0,2.0,58,0.00,,,0.00,350,Wunderground v.1.15,2013-10-03 16:34:00,
2013-10-03 12:40:00,83.0,66.7,30.10,SSW,205,1.0,3.0,58,0.00,,,0.00,656,Wunderground v.1.15,2013-10-03 16:40:00,
2013-10-03 12:46:00,83.6,65.2,30.10,SSW,198,3.0,3.0,54,0.00,,,0.00,656,Wunderground v.1.15,2013-10-03 16:46:00,
2013-10-03 12:52:00,83.2,66.4,30.10,SSE,151,3.0,3.0,57,0.00,,,0.00,264,Wunderground v.1.15,2013-10-03 16:52:00,
2013-10-03 12:58:00,83.2,64.8,30.10,SW,222,3.0,5.0,54,0.00,,,0.00,572,Wunderground v.1.15,2013-10-03 16:58:00,
2013-10-03 13:04:00,84.3,65.8,30.09,SW,232,3.0,3.0,54,0.00,,,0.00,723,Wunderground v.1.15,2013-10-03 17:04:00,
2013-10-03 13:10:00,84.0,63.9,30.09,SE,136,4.0,6.0,51,0.00,,,0.00,755,Wunderground v.1.15,2013-10-03 17:10:00,
2013-10-03 13:16:00,84.5,65.5,30.09,ESE,116,4.0,6.0,53,0.00,,,0.00,713,Wunderground v.1.15,2013-10-03 17:16:00,
2013-10-03 13:22:00,84.3,64.8,30.09,SSE,148,4.0,5.0,52,0.00,,,0.00,709,Wunderground v.1.15,2013-10-03 17:22:00,
2013-10-03 13:28:00,85.3,64.6,30.09,SSW,199,4.0,5.0,50,0.00,,,0.00,718,Wunderground v.1.15,2013-10-03 17:28:00,
2013-10-03 13:34:00,85.5,62.4,30.08,South,172,4.0,5.0,46,0.00,,,0.00,706,Wunderground v.1.15,2013-10-03 17:34:00,
2013-10-03 13:41:00,85.1,62.6,30.08,SSW,192,4.0,6.0,47,0.00,,,0.00,706,Wunderground v.1.15,2013-10-03 17:41:00,
2013-10-03 13:46:00,85.7,65.5,30.07,SSW,213,4.0,5.0,51,0.00,,,0.00,704,Wunderground v.1.15,2013-10-03 17:46:00,
2013-10-03 13:52:00,85.7,63.1,30.07,SW,220,3.0,3.0,47,0.00,,,0.00,699,Wunderground v.1.15,2013-10-03 17:52:00,
2013-10-03 13:58:00,85.9,63.3,30.07,South,172,4.0,7.0,47,0.00,,,0.00,697,Wunderground v.1.15,2013-10-03 17:58:00,
2013-10-03 14:04:00,85.5,63.0,30.07,WSW,243,5.0,8.0,47,0.00,,,0.00,688,Wunderground v.1.15,2013-10-03 18:04:00,
2013-10-03 14:10:00,85.5,63.6,30.07,SSE,160,5.0,5.0,48,0.00,,,0.00,674,Wunderground v.1.15,2013-10-03 18:10:00,
2013-10-03 14:16:00,85.7,63.1,30.07,SSW,198,5.0,5.0,47,0.00,,,0.00,674,Wunderground v.1.15,2013-10-03 18:16:00,
2013-10-03 14:22:00,85.5,63.6,30.07,SW,223,3.0,3.0,48,0.00,,,0.00,544,Wunderground v.1.15,2013-10-03 18:22:00,
2013-10-03 14:28:00,85.9,65.1,30.07,WNW,284,3.0,4.0,50,0.00,,,0.00,216,Wunderground v.1.15,2013-10-03 18:28:00,
2013-10-03 14:34:00,85.5,63.6,30.07,SW,220,4.0,10.0,48,0.00,,,0.00,216,Wunderground v.1.15,2013-10-03 18:34:00,
2013-10-03 14:40:00,85.7,63.8,30.07,SSW,193,5.0,10.0,48,0.00,,,0.00,216,Wunderground v.1.15,2013-10-03 18:40:00,
2013-10-03 14:46:00,86.1,62.9,30.07,SW,219,5.0,10.0,46,0.00,,,0.00,704,Wunderground v.1.15,2013-10-03 18:46:00,
2013-10-03 14:52:00,86.1,65.3,30.07,SW,234,5.0,5.0,50,0.00,,,0.00,628,Wunderground v.1.15,2013-10-03 18:52:00,
2013-10-03 14:58:00,85.1,62.6,30.07,SW,233,4.0,8.0,47,0.00,,,0.00,121,Wunderground v.1.15,2013-10-03 18:58:00,
2013-10-03 15:04:00,84.0,62.8,30.07,SSW,200,5.0,10.0,49,0.00,,,0.00,644,Wunderground v.1.15,2013-10-03 19:04:00,
2013-10-03 15:10:00,85.1,64.4,30.07,SW,217,5.0,7.0,50,0.00,,,0.00,625,Wunderground v.1.15,2013-10-03 19:10:00,
2013-10-03 15:16:00,85.9,65.1,30.06,SW,223,5.0,7.0,50,0.00,,,0.00,618,Wunderground v.1.15,2013-10-03 19:16:00,
2013-10-03 15:22:00,86.5,64.5,30.06,WSW,247,5.0,8.0,48,0.00,,,0.00,581,Wunderground v.1.15,2013-10-03 19:22:00,
2013-10-03 15:28:00,86.1,63.5,30.06,WSW,253,5.0,9.0,47,0.00,,,0.00,535,Wunderground v.1.15,2013-10-03 19:28:00,
2013-10-03 15:34:00,85.5,64.2,30.06,West,267,5.0,7.0,49,0.00,,,0.00,537,Wunderground v.1.15,2013-10-03 19:34:00,
2013-10-03 15:40:00,85.7,63.8,30.06,WSW,239,4.0,7.0,48,0.00,,,0.00,528,Wunderground v.1.15,2013-10-03 19:40:00,
2013-10-03 15:46:00,85.9,63.3,30.06,WSW,239,4.0,7.0,47,0.00,,,0.00,443,Wunderground v.1.15,2013-10-03 19:46:00,
2013-10-03 15:52:00,85.5,63.0,30.06,SW,227,5.0,5.0,47,0.00,,,0.00,472,Wunderground v.1.15,2013-10-03 19:52:00,
2013-10-03 15:58:00,85.3,62.8,30.06,NW,308,3.0,5.0,47,0.00,,,0.00,91,Wunderground v.1.15,2013-10-03 19:58:00,
2013-10-03 16:04:00,84.9,63.6,30.05,SSW,213,2.0,5.0,49,0.00,,,0.00,120,Wunderground v.1.15,2013-10-03 20:04:00,
2013-10-03 16:10:00,84.5,62.7,30.05,SW,236,4.0,4.0,48,0.00,,,0.00,99,Wunderground v.1.15,2013-10-03 20:10:00,
2013-10-03 16:16:00,84.3,61.9,30.05,SW,220,5.0,5.0,47,0.00,,,0.00,72,Wunderground v.1.15,2013-10-03 20:16:00,
2013-10-03 16:22:00,84.0,62.2,30.05,SSW,200,4.0,5.0,48,0.00,,,0.00,88,Wunderground v.1.15,2013-10-03 20:22:00,
2013-10-03 16:28:00,83.8,62.0,30.05,SSW,210,4.0,11.0,48,0.00,,,0.00,83,Wunderground v.1.15,2013-10-03 20:28:00,
2013-10-03 16:34:00,83.8,61.4,30.05,SSE,158,5.0,5.0,47,0.00,,,0.00,60,Wunderground v.1.15,2013-10-03 20:34:00,
2013-10-03 16:41:00,83.6,62.4,30.05,WSW,243,4.0,4.0,49,0.00,,,0.00,79,Wunderground v.1.15,2013-10-03 20:41:00,
2013-10-03 16:46:00,83.6,62.4,30.04,WNW,285,3.0,5.0,49,0.00,,,0.00,79,Wunderground v.1.15,2013-10-03 20:46:00,
2013-10-03 16:52:00,83.6,62.4,30.04,SSW,212,3.0,5.0,49,0.00,,,0.00,63,Wunderground v.1.15,2013-10-03 20:52:00,
2013-10-03 16:58:00,83.4,62.2,30.04,SSW,210,4.0,5.0,49,0.00,,,0.00,58,Wunderground v.1.15,2013-10-03 20:58:00,
2013-10-03 17:04:00,83.2,62.1,30.05,WSW,258,3.0,3.0,49,0.00,,,0.00,58,Wunderground v.1.15,2013-10-03 21:04:00,
2013-10-03 17:10:00,83.0,61.9,30.05,WSW,247,3.0,3.0,49,0.00,,,0.00,58,Wunderground v.1.15,2013-10-03 21:10:00,
2013-10-03 17:16:00,82.8,62.8,30.05,SW,217,3.0,3.0,51,0.00,,,0.00,58,Wunderground v.1.15,2013-10-03 21:16:00,
2013-10-03 17:22:00,82.8,62.8,30.05,SSW,210,3.0,4.0,51,0.00,,,0.00,58,Wunderground v.1.15,2013-10-03 21:22:00,
2013-10-03 17:28:00,82.6,63.2,30.05,South,172,3.0,7.0,52,0.00,,,0.00,70,Wunderground v.1.15,2013-10-03 21:28:00,
2013-10-03 17:34:00,82.4,64.1,30.05,SW,216,2.0,6.0,54,0.00,,,0.00,60,Wunderground v.1.15,2013-10-03 21:34:00,
2013-10-03 17:40:00,82.4,64.1,30.05,South,181,4.0,5.0,54,0.00,,,0.00,60,Wunderground v.1.15,2013-10-03 21:40:00,
2013-10-03 17:46:00,82.2,63.9,30.06,SW,227,3.0,5.0,54,0.00,,,0.00,39,Wunderground v.1.15,2013-10-03 21:46:00,
2013-10-03 17:52:00,81.8,63.5,30.06,SW,217,3.0,7.0,54,0.00,,,0.00,39,Wunderground v.1.15,2013-10-03 21:52:00,
2013-10-03 17:58:00,81.6,63.3,30.06,SW,223,4.0,7.0,54,0.00,,,0.00,55,Wunderground v.1.15,2013-10-03 21:58:00,
2013-10-03 18:04:00,81.6,63.9,30.06,SW,222,2.0,6.0,55,0.00,,,0.00,65,Wunderground v.1.15,2013-10-03 22:04:00,
2013-10-03 18:10:00,81.4,63.7,30.06,SW,232,2.0,2.0,55,0.00,,,0.00,62,Wunderground v.1.15,2013-10-03 22:10:00,
2013-10-03 18:16:00,81.2,63.5,30.06,South,179,2.0,7.0,55,0.00,,,0.00,51,Wunderground v.1.15,2013-10-03 22:16:00,
2013-10-03 18:22:00,81.1,63.9,30.06,SSW,198,2.0,2.0,56,0.00,,,0.00,37,Wunderground v.1.15,2013-10-03 22:22:00,
2013-10-03 18:28:00,81.1,64.4,30.06,SSW,198,1.0,2.0,57,0.00,,,0.00,30,Wunderground v.1.15,2013-10-03 22:28:00,
2013-10-03 18:34:00,80.7,64.5,30.07,SSW,198,1.0,1.0,58,0.00,,,0.00,25,Wunderground v.1.15,2013-10-03 22:34:00,
2013-10-03 18:40:00,80.3,64.7,30.07,WSW,251,1.0,1.0,59,0.00,,,0.00,16,Wunderground v.1.15,2013-10-03 22:40:00,
2013-10-03 18:46:00,79.9,64.8,30.07,SW,219,0.0,1.0,60,0.00,,,0.00,14,Wunderground v.1.15,2013-10-03 22:46:00,
2013-10-03 18:52:00,79.6,65.4,30.07,NNW,332,1.0,1.0,62,0.00,,,0.00,7,Wunderground v.1.15,2013-10-03 22:52:00,
2013-10-03 18:58:00,79.2,65.5,30.07,NNW,332,0.0,2.0,63,0.00,,,0.00,5,Wunderground v.1.15,2013-10-03 22:58:00,
2013-10-03 19:04:00,78.6,65.4,30.07,NNW,332,1.0,1.0,64,0.00,,,0.00,0,Wunderground v.1.15,2013-10-03 23:04:00,
2013-10-03 19:10:00,78.1,65.4,30.07,NNW,332,0.0,0.0,65,0.00,,,0.00,0,Wunderground v.1.15,2013-10-03 23:10:00,
2013-10-03 19:16:00,77.6,65.8,30.08,NNW,332,0.0,0.0,67,0.00,,,0.00,0,Wunderground v.1.15,2013-10-03 23:16:00,
2013-10-03 19:22:00,77.0,65.6,30.08,NNW,332,0.0,0.0,68,0.00,,,0.00,0,Wunderground v.1.15,2013-10-03 23:22:00,
2013-10-03 19:28:00,76.5,66.0,30.08,NNW,332,0.0,0.0,70,0.00,,,0.00,0,Wunderground v.1.15,2013-10-03 23:28:00,
2013-10-03 19:34:00,76.0,65.9,30.08,NNW,332,0.0,0.0,71,0.00,,,0.00,0,Wunderground v.1.15,2013-10-03 23:34:00,
2013-10-03 19:41:00,75.4,65.3,30.08,NNW,332,0.0,0.0,71,0.00,,,0.00,0,Wunderground v.1.15,2013-10-03 23:41:00,
2013-10-03 19:46:00,75.1,65.5,30.08,NNW,332,0.0,0.0,72,0.00,,,0.00,0,Wunderground v.1.15,2013-10-03 23:46:00,
2013-10-03 19:52:00,74.6,65.4,30.08,NNW,332,0.0,0.0,73,0.00,,,0.00,0,Wunderground v.1.15,2013-10-03 23:52:00,
2013-10-03 19:58:00,74.2,65.4,30.08,NNW,332,0.0,0.0,74,0.00,,,0.00,0,Wunderground v.1.15,2013-10-03 23:58:00,
2013-10-03 20:04:00,73.9,65.1,30.08,NNW,332,0.0,1.0,74,0.00,,,0.00,0,Wunderground v.1.15,2013-10-04 00:04:00,
2013-10-03 20:10:00,73.5,65.1,30.08,NNW,332,0.0,0.0,75,0.00,,,0.00,0,Wunderground v.1.15,2013-10-04 00:10:00,
2013-10-03 20:16:00,73.2,65.2,30.08,NNW,332,0.0,0.0,76,0.00,,,0.00,0,Wunderground v.1.15,2013-10-04 00:16:00,
2013-10-03 20:22:00,73.0,65.0,30.08,NNW,332,0.0,0.0,76,0.00,,,0.00,0,Wunderground v.1.15,2013-10-04 00:22:00,
2013-10-03 20:28:00,72.7,65.1,30.08,NNW,332,0.0,2.0,77,0.00,,,0.00,0,Wunderground v.1.15,2013-10-04 00:28:00,
2013-10-03 20:34:00,72.5,64.9,30.08,NNW,332,0.0,0.0,77,0.00,,,0.00,0,Wunderground v.1.15,2013-10-04 00:34:00,
2013-10-03 20:40:00,71.8,64.9,30.08,NNW,332,0.0,0.0,79,0.00,,,0.00,0,Wunderground v.1.15,2013-10-04 00:40:00,
2013-10-03 20:46:00,71.5,65.0,30.08,NNW,332,0.0,0.0,80,0.00,,,0.00,0,Wunderground v.1.15,2013-10-04 00:46:00,
2013-10-03 20:52:00,71.3,64.8,30.08,NNW,332,0.0,0.0,80,0.00,,,0.00,0,Wunderground v.1.15,2013-10-04 00:52:00,
2013-10-03 20:58:00,70.9,64.8,30.08,NNW,332,0.0,2.0,81,0.00,,,0.00,0,Wunderground v.1.15,2013-10-04 00:58:00,
2013-10-03 21:04:00,70.6,64.8,30.08,NNW,332,0.0,0.0,82,0.00,,,0.00,0,Wunderground v.1.15,2013-10-04 01:04:00,
2013-10-03 21:11:00,70.4,64.6,30.08,NNW,332,0.0,1.0,82,0.00,,,0.00,0,Wunderground v.1.15,2013-10-04 01:11:00,
2013-10-03 21:16:00,70.1,64.3,30.08,NNW,332,0.0,1.0,82,0.00,,,0.00,0,Wunderground v.1.15,2013-10-04 01:16:00,
2013-10-03 21:22:00,69.9,64.5,30.08,NNW,332,0.0,0.0,83,0.00,,,0.00,0,Wunderground v.1.15,2013-10-04 01:22:00,
2013-10-03 21:28:00,69.8,64.7,30.08,NNW,332,0.0,0.0,84,0.00,,,0.00,0,Wunderground v.1.15,2013-10-04 01:28:00,
2013-10-03 21:34:00,69.6,64.5,30.09,NNW,332,0.0,0.0,84,0.00,,,0.00,0,Wunderground v.1.15,2013-10-04 01:34:00,
2013-10-03 21:40:00,69.4,64.7,30.09,NNW,332,0.0,0.0,85,0.00,,,0.00,0,Wunderground v.1.15,2013-10-04 01:40:00,
2013-10-03 21:46:00,69.3,64.6,30.09,NNW,332,0.0,0.0,85,0.00,,,0.00,0,Wunderground v.1.15,2013-10-04 01:46:00,
2013-10-03 21:52:00,69.1,64.7,30.09,NNW,332,0.0,0.0,86,0.00,,,0.00,0,Wunderground v.1.15,2013-10-04 01:52:00,
2013-10-03 21:58:00,69.1,65.1,30.09,NNW,332,0.0,0.0,87,0.00,,,0.00,0,Wunderground v.1.15,2013-10-04 01:58:00,
2013-10-03 22:04:00,69.1,65.1,30.09,SSW,200,1.0,1.0,87,0.00,,,0.00,0,Wunderground v.1.15,2013-10-04 02:04:00,
2013-10-03 22:10:00,69.1,65.4,30.09,SSW,200,2.0,2.0,88,0.00,,,0.00,0,Wunderground v.1.15,2013-10-04 02:10:00,
2013-10-03 22:16:00,69.1,65.4,30.09,SSW,200,1.0,2.0,88,0.00,,,0.00,0,Wunderground v.1.15,2013-10-04 02:16:00,
2013-10-03 22:22:00,69.1,65.4,30.09,SSW,200,2.0,2.0,88,0.00,,,0.00,0,Wunderground v.1.15,2013-10-04 02:22:00,
2013-10-03 22:28:00,69.3,65.6,30.09,SSW,200,2.0,5.0,88,0.00,,,0.00,0,Wunderground v.1.15,2013-10-04 02:28:00,
2013-10-03 22:34:00,69.3,65.3,30.10,SSW,200,2.0,5.0,87,0.00,,,0.00,0,Wunderground v.1.15,2013-10-04 02:34:00,
2013-10-03 22:40:00,69.3,65.3,30.10,SW,226,2.0,5.0,87,0.00,,,0.00,0,Wunderground v.1.15,2013-10-04 02:40:00,
2013-10-03 22:46:00,69.6,65.2,30.10,SW,224,3.0,5.0,86,0.00,,,0.00,0,Wunderground v.1.15,2013-10-04 02:46:00,
2013-10-03 22:52:00,69.9,64.8,30.10,SW,216,3.0,4.0,84,0.00,,,0.00,0,Wunderground v.1.15,2013-10-04 02:52:00,
2013-10-03 22:58:00,70.1,65.0,30.10,SW,224,3.0,5.0,84,0.00,,,0.00,0,Wunderground v.1.15,2013-10-04 02:58:00,
2013-10-03 23:04:00,70.3,64.9,30.10,SW,224,3.0,5.0,83,0.00,,,0.00,0,Wunderground v.1.15,2013-10-04 03:04:00,
2013-10-03 23:10:00,70.3,64.9,30.10,WSW,237,3.0,7.0,83,0.00,,,0.00,0,Wunderground v.1.15,2013-10-04 03:10:00,
2013-10-03 23:16:00,70.4,64.6,30.10,SW,223,2.0,3.0,82,0.00,,,0.00,0,Wunderground v.1.15,2013-10-04 03:16:00,
2013-10-03 23:22:00,70.4,64.6,30.10,SW,223,2.0,2.0,82,0.00,,,0.00,0,Wunderground v.1.15,2013-10-04 03:22:00,
2013-10-03 23:28:00,70.4,64.6,30.10,SW,223,2.0,2.0,82,0.00,,,0.00,0,Wunderground v.1.15,2013-10-04 03:28:00,
2013-10-03 23:34:00,70.3,64.5,30.10,SW,223,2.0,2.0,82,0.00,,,0.00,0,Wunderground v.1.15,2013-10-04 03:34:00,
2013-10-03 23:40:00,70.3,64.5,30.10,SW,219,2.0,2.0,82,0.00,,,0.00,0,Wunderground v.1.15,2013-10-04 03:40:00,
2013-10-03 23:46:00,70.3,64.5,30.10,SW,219,3.0,5.0,82,0.00,,,0.00,0,Wunderground v.1.15,2013-10-04 03:46:00,
2013-10-03 23:52:00,70.1,64.3,30.10,SW,219,2.0,2.0,82,0.00,,,0.00,0,Wunderground v.1.15,2013-10-04 03:52:00,
2013-10-03 23:58:00,70.1,64.3,30.10,SW,219,2.0,2.0,82,0.00,,,0.00,0,Wunderground v.1.15,2013-10-04 03:58:00,